Location: Newark
(41.6500°N, 71.4833°W)
Time: 04:12:53
(UTC+00:00)

A-11 Canister half - Pass Details

Date: 23 January 2020
Orbit: 1517 x 1683 km, 47.2° (Epoch: 18 February)

Event Time Altitude Azimuth Distance (km) Brightness Sun altitude
Rises 07:28:02 0° 272° (W) 4,692 - -51.3°
Reaches altitude 10° 07:31:10 10° 276° (W) 3,697 - -50.7°
Maximum altitude 07:40:22 62° 357° (N) 1,674 - -49.1°
Exits shadow 07:44:13 38° 62° (ENE) 2,176 9.9 -48.5°
Drops below altitude 10° 07:49:33 10° 78° (ENE) 3,693 11.5 -47.5°
Sets 07:52:41 0° 82° (E) 4,687 12.2 -47.0°
